San Sebastian, Spain

11:52 AM CEST on June 26, 2017 (GMT +0200)
San Sebastian

Weather History for LESO - March, 2013

Change the Weather History Date:

Sunday, March 31, 2013

  Actual Average Record
Temperature  
Mean Temperature 52 °F -  
Max Temperature 59 °F 60 °F 77 °F (1999)
Min Temperature 46 °F 47 °F 41 °F (1997)
Degree Days  
Heating Degree Days 12    
Growing Degree Days 2 (Base 50)    
Moisture  
Dew Point 47 °F    
Average Humidity 76    
Maximum Humidity 93    
Minimum Humidity 55    
Precipitation  
Precipitation 0.00 in - - ()
Sea Level Pressure  
Sea Level Pressure 29.70 in    
Wind  
Wind Speed 5 mph ()    
Max Wind Speed 14 mph    
Max Gust Speed -    
Visibility 6.2 miles    
Events      
Averages and records for this station are not official NWS values.
T = Trace of Precipitation, MM = Missing Value Source: Averaged Metar Reports

Daily Weather History Graph

Daily Weather History Graph

Search for Another Location

Airport or City:

Trip Planner

Search our weather history database for the weather conditions in past years. The results will help you decide how hot, cold, wet, or windy it might be!

Date:

Astronomy

Mar. 31, 2013 Rise Set
Actual Time 7:50 AM CEST 8:32 PM CEST
Civil Twilight 7:21 AM CEST 9:01 PM CEST
Nautical Twilight 6:47 AM CEST 9:35 PM CEST
Astronomical Twilight 6:12 AM CEST 10:11 PM CEST
Moon 12:29 AM CET (3/31) 10:17 AM CEST (3/31)
Length of Visible Light 13h 39m
Length of Day
12h 41m
Waning Gibbous, 80% of the Moon is Illuminated
Mar 31
Waning Gibbous
Apr 3
Last Quarter
Apr 10
New
Apr 18
First Quarter
Apr 25
Full

Hourly Weather History & Observations

Time (CEST) Temp. Windchill Dew Point Humidity Pressure Visibility Wind Dir Wind Speed Gust Speed Precip Events Conditions
5:30 AM 48.2 °F - 44.6 °F 87% 29.83 in - South 4.6 mph - N/A   Clear
6:00 AM 46.4 °F 45.2 °F 42.8 °F 87% 29.83 in - South 3.5 mph - N/A   Clear
6:30 AM 46.4 °F 45.2 °F 42.8 °F 87% 29.83 in 6.2 mi SSE 3.5 mph - N/A   Scattered Clouds
7:00 AM 46.4 °F - 44.6 °F 93% 29.83 in - Calm Calm - N/A   Clear
7:30 AM 46.4 °F 45.2 °F 42.8 °F 87% 29.80 in - South 3.5 mph - N/A   Clear
8:00 AM 46.4 °F 45.2 °F 42.8 °F 87% 29.80 in - South 3.5 mph - N/A   Clear
8:30 AM 46.4 °F - 42.8 °F 87% 29.80 in - Variable 2.3 mph - N/A   Clear
9:00 AM 48.2 °F - 44.6 °F 87% 29.80 in - Calm Calm - N/A   Clear
9:30 AM 50.0 °F - 44.6 °F 82% 29.80 in 6.2 mi Variable 2.3 mph - N/A   Partly Cloudy
10:00 AM 51.8 °F - 44.6 °F 76% 29.80 in - Variable 1.2 mph - N/A   Clear
10:30 AM 55.4 °F - 44.6 °F 67% 29.80 in - Calm Calm - N/A   Clear
11:00 AM 57.2 °F - 46.4 °F 67% 29.77 in - Calm Calm - N/A   Clear
11:30 AM 55.4 °F - 44.6 °F 67% 29.77 in - North 3.5 mph - N/A   Clear
12:00 PM 55.4 °F - 46.4 °F 72% 29.77 in - NNE 9.2 mph - N/A   Clear
12:30 PM 55.4 °F - 48.2 °F 77% 29.74 in - North 8.1 mph - N/A   Clear
1:00 PM 57.2 °F - 48.2 °F 72% 29.74 in - North 5.8 mph - N/A   Clear
1:30 PM 57.2 °F - 48.2 °F 72% 29.74 in 6.2 mi North 9.2 mph - N/A   Partly Cloudy
2:00 PM 57.2 °F - 48.2 °F 72% 29.71 in 6.2 mi NNE 11.5 mph - N/A   Partly Cloudy
2:30 PM 57.2 °F - 48.2 °F 72% 29.71 in 6.2 mi NNE 12.7 mph - N/A   Partly Cloudy
3:00 PM 57.2 °F - 50.0 °F 77% 29.68 in 6.2 mi North 11.5 mph - N/A   Partly Cloudy
3:30 PM 57.2 °F - 48.2 °F 72% 29.68 in 6.2 mi NNE 11.5 mph - N/A   Partly Cloudy
4:00 PM 57.2 °F - 50.0 °F 77% 29.65 in - NNE 13.8 mph - N/A   Clear
4:30 PM 57.2 °F - 50.0 °F 77% 29.62 in - NNE 13.8 mph - N/A   Clear
5:00 PM 57.2 °F - 50.0 °F 77% 29.62 in - NNE 12.7 mph - N/A   Clear
5:30 PM 57.2 °F - 50.0 °F 77% 29.59 in - NNE 12.7 mph - N/A   Clear
6:00 PM 59.0 °F - 51.8 °F 77% 29.59 in - NNE 13.8 mph - N/A   Clear
6:30 PM 57.2 °F - 50.0 °F 77% 29.56 in - NNE 13.8 mph - N/A   Clear
7:00 PM 59.0 °F - 48.2 °F 67% 29.56 in - NNE 11.5 mph - N/A   Clear
7:30 PM 57.2 °F - 50.0 °F 77% 29.56 in - NNE 10.4 mph - N/A   Clear
8:00 PM 57.2 °F - 50.0 °F 77% 29.53 in - NNE 8.1 mph - N/A   Clear
8:30 PM 59.0 °F - 44.6 °F 59% 29.53 in - NE 9.2 mph - N/A   Clear
9:00 PM 59.0 °F - 42.8 °F 55% 29.50 in - NE 8.1 mph - N/A   Clear
9:30 PM 59.0 °F - 44.6 °F 59% 29.50 in - ENE 8.1 mph - N/A   Clear